Location: UBC Liquid-Mirror Observatory
(49.2876°N, 122.5728°W)
Time: 19:13:08
(UTC-07:00)

Daily predictions for brighter satellites

Satellite Brightness Start Highest point End
(mag) Time Altitude Azimuth Time Altitude Azimuth Time Altitude Azimuth
Cosmos 2333 4.2 20:37:35 10° S 20:43:08 60° ESE 20:48:39 10° NE
Cosmos 1844 3.9 20:37:34 10° NNW 20:43:17 83° WSW 20:49:01 10° SSE
NOSS 3-4 (A) 4.5 20:36:50 10° NW 20:43:18 44° NNE 20:50:16 10° ESE
NOSS 3-4 (C) 4.5 20:36:56 10° NW 20:43:24 43° NNE 20:50:21 10° ESE
Cosmos 44 3.4 20:39:26 10° SW 20:43:58 78° NW 20:48:50 10° NE
Cosmos 1805 Rocket 4.2 20:42:24 10° NNW 20:46:43 59° W 20:50:58 10° S
SJ 16-02 4.4 20:45:55 10° WSW 20:49:12 20° NW 20:52:31 10° N
Genesis I 3.3 20:46:54 10° NW 20:51:00 81° NE 20:55:04 10° SE
H-2A R/B 3.2 20:49:00 10° ESE 20:53:02 25° ENE 20:57:00 10° N
YAOGAN 6 2.7 20:49:51 10° S 20:53:27 82° WSW 20:57:08 10° NNW
Cosmos 2219 Rocket 2.4 20:48:27 10° S 20:53:53 50° ESE 20:59:20 10° NE
NOSS 3-3 (A) 4.3 20:48:28 10° S 20:54:14 46° ESE 21:00:34 10° NE
NOSS 3-3 (C) 4.3 20:48:35 10° S 20:54:20 46° ESE 21:00:39 10° NE
ERS-1 Rocket 4.3 20:50:40 10° ESE 20:54:38 24° ENE 20:58:35 10° N
Cosmos 2237 Rocket 3.1 20:50:09 10° SSE 20:54:46 27° ESE 20:59:24 10° NE
Cosmos 1437 4.2 20:51:43 10° SSW 20:54:47 43° WNW 20:57:52 10° N
Cosmos 2322 Rocket 4.4 20:51:22 10° WSW 20:56:22 31° NW 21:01:23 10° NNE
Cosmos 1328 Rocket 3.9 20:52:48 10° SSE 20:57:01 46° E 21:01:17 10° NNE
Cosmos 2278 Rocket 2.3 20:53:56 10° NNW 20:59:36 65° ENE 21:05:15 10° SE
Resurs 01 Rocket 1.7 20:56:28 10° SSE 21:00:56 85° W 21:05:24 10° NNW
Cosmos 2251 Rocket 4.4 20:57:48 10° NNW 21:03:02 52° WSW 21:08:12 10° S
Cosmos 2154 Rocket 4.0 20:56:47 10° S 21:03:03 87° E 21:09:19 10° N
NOSS 7 (H) 4.4 20:59:49 10° SW 21:03:13 82° NW 21:06:36 10° NE
Cosmos 1470 Rocket 3.7 21:00:15 10° N 21:04:37 60° ENE 21:08:59 10° SSE
ATLAS 5 CENTAUR R/B 4.1 21:01:15 10° NW 21:05:22 21° NNE 21:09:49 10° ENE
Cosmos 44 Rocket 3.6 21:02:49 10° SW 21:07:36 73° NW 21:12:35 10° NE
Cosmos 1340 3.2 21:05:08 10° SSW 21:08:54 63° WNW 21:12:42 10° N
NOAA 11 4.2 21:04:05 10° SSE 21:09:34 78° ENE 21:15:06 10° NNW
ATLAS CENTAUR R/B 1.7 21:06:26 10° S 21:09:46 33° ESE 21:13:15 10° NE
Envisat 4.4 21:05:53 10° SSW 21:10:37 39° W 21:15:24 10° NNW
Cosmos 1825 2.3 21:14:21 10° N 21:18:06 54° ENE 21:21:24 13° SSE
Cosmos 405 4.2 21:17:11 10° N 21:20:15 27° ENE 21:22:04 17° ESE
Aureole 2 4.3 21:19:09 10° S 21:22:02 44° ESE 21:24:52 10° NE
Cosmos 2098 Rocket 3.7 21:20:02 10° SSE 21:24:08 32° E 21:27:31 10° NNE
Cosmos 2341 Rocket 4.0 21:18:40 10° S 21:25:03 87° E 21:31:24 10° N
USA 186 3.9 21:23:30 10° SW 21:25:05 17° W 21:26:42 10° NW
Cosmos 2218 Rocket 4.2 21:25:04 10° SSE 21:31:15 57° E 21:37:31 10° NNE
Thor Agena Rocket 4.3 21:26:54 10° N 21:32:01 57° WNW 21:37:10 10° SW
Cosmos 1939 Rocket 4.5 21:29:30 10° SSW 21:33:00 32° W 21:36:35 10° NNW
Cosmos 1933 Rocket 3.6 21:28:55 10° N 21:33:21 85° WSW 21:37:42 10° S
USA 234 4.0 21:31:11 10° E 21:37:26 50° NNE 21:43:42 10° WNW
Cosmos 1190 Rocket 4.2 21:32:15 10° NNW 21:37:31 58° ENE 21:41:05 20° SE
NOSS 0 Rocket 3.9 21:31:36 10° SSW 21:37:41 66° ESE 21:43:51 10° NE
Cosmos 1869 3.4 21:38:19 13° S 21:41:48 54° E 21:45:45 10° NNE
Cosmos 1140 Rocket 4.3 21:39:08 10° N 21:43:55 36° ENE 21:46:47 21° ESE
Cosmos 2366 rocket 4.0 21:37:52 10° S 21:43:59 63° E 21:50:12 10° NNE
SL-16 R/B 3.1 21:41:17 18° SSE 21:44:13 28° ESE 21:48:56 10° NE
Cosmos 1151 Rocket 3.0 21:40:41 10° S 21:44:57 86° WNW 21:49:15 10° N
Terra 3.4 21:43:58 16° E 21:46:05 21° ENE 21:49:39 10° NNE
GEOS 3 Rocket 4.4 21:41:33 10° ENE 21:46:11 29° ESE 21:50:43 10° S
Cosmos 1943 Rocket 4.1 21:47:18 10° N 21:50:56 17° NE 21:54:33 10° ENE
ARGOS 3.1 21:48:41 16° SSE 21:53:03 90° ENE 21:58:28 10° NNW
SL-8 Rocket 4.0 21:47:17 10° S 21:53:37 87° W 21:59:56 10° N
Cosmos 1869 Rocket 3.7 21:51:13 10° N 21:55:33 54° ENE 21:57:34 28° SE
Helios 1B rocket 3.7 21:52:45 10° NE 21:56:04 23° E 21:56:07 23° E
Lacrosse 5 3.0 21:52:01 10° WNW 21:56:47 38° NNE 22:01:09 12° E
Cosmos 1339 Rocket 4.4 21:50:42 10° N 21:56:49 86° E 22:01:50 16° S
MetOp-B 4.1 21:53:32 18° SSE 21:57:34 88° ENE 22:02:58 10° NNW
SPOT 5 3.1 21:58:33 28° SE 22:00:38 48° ENE 22:04:55 10° N
ATLAS 2AS CENTAUR R/B 3.9 21:56:36 10° NW 22:03:51 41° WSW 22:10:10 12° S
Cosmos 1408 4.1 22:04:04 10° NNW 22:07:24 34° W 22:10:34 11° SSW
Cosmos 1733 Rocket 4.3 22:03:59 10° NNE 22:07:39 25° ENE 22:08:32 23° E
Cosmos 1455 4.4 22:06:57 10° SW 22:10:14 26° WNW 22:13:34 10° NNW
Cosmos 1441 Rocket 3.4 22:09:53 42° SE 22:10:28 46° E 22:14:05 10° NNE
DMSP B5D2-2 4.5 22:05:40 10° NNE 22:10:39 42° E 22:12:37 30° SE
Cosmos 1980 3.8 22:05:04 10° SSW 22:10:45 83° WNW 22:16:30 10° NNE
Cosmos 2297 3.7 22:05:17 10° NNW 22:11:00 88° ENE 22:14:03 29° SSE
Cosmos 2344 4.1 22:08:24 19° SSE 22:12:54 34° ESE 22:20:08 10° NE
Meteor 2-10 Rocket 3.7 22:08:14 11° S 22:13:50 81° E 22:19:42 10° NNE
Helios 1A 2.9 22:12:29 36° SSE 22:14:09 77° ENE 22:18:22 10° NNW
Cosmos 2228 Rocket 4.3 22:11:13 10° SSW 22:15:24 42° WNW 22:19:37 10° N
Cosmos 2369 Rocket 3.4 22:14:17 10° NNW 22:19:18 30° NE 22:22:03 21° E
Cosmos 2333 Rocket 3.1 22:14:18 10° SW 22:19:48 50° NW 22:25:19 10° NNE
USA 81 4.1 22:15:29 10° N 22:20:47 81° W 22:24:02 24° S
BREEZE M DEB (TANK) 4.1 22:03:33 10° WSW 22:21:43 81° SSE 22:25:52 15° E
RESURS DK-1 4.3 22:19:09 10° N 22:22:08 19° NE 22:23:37 16° ENE
SPOT 1/Viking Rocket 3.5 22:21:27 34° SSE 22:23:48 75° ENE 22:29:02 10° NNW
Cosmos 1862 3.3 22:20:02 10° NNW 22:24:06 79° W 22:25:29 40° S
USA 245 2.9 22:26:10 51° WNW 22:26:10 51° WNW 22:28:13 10° NNW
SL-8 R/B 3.8 22:23:29 10° SW 22:28:06 49° SSE 22:28:58 43° ESE
Cosmos 407 Rocket 3.8 22:24:02 10° NNW 22:29:06 59° WSW 22:31:35 29° S
H-2A R/B 2.5 22:29:05 22° S 22:32:09 54° W 22:37:03 10° NNW
Cosmos 614 Rocket 3.9 22:27:34 10° NNW 22:32:51 84° ENE 22:34:42 41° SSE
Cosmos 1437 Rocket 3.3 22:29:14 10° N 22:32:55 41° ENE 22:33:02 41° ENE
ERS-1 Rocket 3.4 22:30:12 25° S 22:33:04 57° W 22:38:02 10° NNW
NOSS 3-4 (A) 4.0 22:27:46 10° NW 22:34:39 66° SW 22:38:28 31° SSE
NOSS 3-4 (C) 4.0 22:27:52 10° NW 22:34:46 66° SW 22:38:33 31° SSE
BREEZE-M DEB (TANK) 3.1 22:33:12 10° W 22:34:37 35° W 22:34:37 35° W
Cosmos 2219 Rocket 3.9 22:32:56 10° WSW 22:38:04 34° NW 22:43:13 10° NNE
Cosmos 2237 Rocket 2.8 22:32:55 10° SW 22:38:28 58° NW 22:44:03 10° NNE
Cosmos 405 Rocket 2.6 22:38:21 56° SSW 22:39:08 89° W 22:43:06 10° NNE
CZ-2C R/B 4.1 22:36:03 10° NE 22:39:42 21° E 22:39:42 21° E
Cosmos 1934 Rocket 4.3 22:39:15 37° SE 22:40:48 45° E 22:46:31 10° NNE
Cosmos 1371 Rocket 4.4 22:35:40 10° SW 22:40:57 65° WNW 22:46:20 10° NNE
IGS 5A 3.5 22:41:25 57° ESE 22:41:57 63° ENE 22:46:06 10° N
SL-19 R/B 4.2 22:40:36 37° SSE 22:42:54 85° WSW 22:48:34 10° NNW
Cosmos 2278 Rocket 4.0 22:38:47 10° NW 22:43:13 24° WSW 22:47:20 11° SSW
USA 267 3.4 22:37:51 10° ENE 22:44:09 48° SE 22:50:25 10° SSW
Cosmos 676 Rocket 4.2 22:42:57 10° NNW 22:48:11 65° WSW 22:49:57 40° S
ATLAS CENTAUR R/B 3.0 22:45:18 10° WSW 22:48:43 33° NW 22:52:20 10° NNE
ATLAS 5 CENTAUR R/B 3.0 22:45:53 10° NW 22:51:21 47° NE 22:54:11 28° E
Meteor 1-20 Rocket 4.4 22:50:26 10° N 22:55:48 54° ENE 22:56:55 46° ESE
Cosmos 1908 Rocket 4.5 22:56:04 10° N 23:00:04 35° ENE 23:00:04 35° ENE
Cosmos 2056 Rocket 4.2 22:57:17 10° SW 23:02:37 56° WNW 23:07:56 10° NNE
Cosmos 1452 Rocket 3.4 23:02:32 57° SSE 23:03:28 70° ESE 23:08:42 10° NNE
Cosmos 1821 Rocket 3.9 23:02:17 36° S 23:05:06 88° E 23:11:26 10° N
Landsat 7 4.1 23:04:34 46° SSW 23:05:42 60° W 23:10:26 10° NNW
H-2A R/B 4.2 23:05:55 16° ENE 23:06:30 16° ENE 23:09:17 10° NNE
Cosmos 1862 Rocket 3.9 23:07:57 52° ENE 23:07:57 52° ENE 23:11:50 10° NNE
Cosmos 1933 3.6 23:08:55 57° WSW 23:09:22 62° WNW 23:13:26 10° N
ALOS 2 4.5 23:14:54 19° ENE 23:15:06 19° ENE 23:18:08 10° NNE
Cosmos 1633 3.3 23:12:20 10° N 23:15:05 50° N 23:15:05 50° N
Cosmos 2123 Rocket 3.9 23:11:15 10° N 23:17:38 89° WSW 23:19:23 51° S
Cosmos 1850 Rocket 3.8 23:13:28 10° NNW 23:18:41 86° WSW 23:19:18 70° SSE
USA 234 3.2 23:17:45 43° ESE 23:20:11 88° NNE 23:26:46 10° WNW
Meteor 1-4 Rocket 3.5 23:17:42 10° N 23:20:12 44° N 23:20:12 44° N
Terra 2.0 23:22:51 55° SW 23:23:26 59° WSW 23:28:11 10° NNW
GEOS 3 Rocket 3.9 23:19:11 10° NE 23:24:32 68° NW 23:29:48 10° SW
Cosmos 1140 Rocket 4.4 23:21:00 10° NW 23:25:45 37° WSW 23:26:49 34° SW
Cosmos 921 Rocket 4.0 23:27:10 37° NE 23:27:10 37° NE 23:30:03 10° NNE
Cosmos 1741 Rocket 3.9 23:20:33 10° NNW 23:25:54 79° WSW 23:26:31 68° S
BREEZE-M DEB (TANK) 4.0 23:22:46 10° W 23:24:13 20° W 23:24:13 20° W
Spot 4 3.9 23:26:19 65° ENE 23:26:24 65° ENE 23:31:09 10° N
SL-16 R/B 2.7 23:23:00 13° SW 23:28:00 57° WNW 23:33:37 10° NNE
Helios 1B rocket 3.6 23:27:38 10° N 23:31:29 39° WNW 23:32:28 34° WSW
Meteor 1-11 Rocket 4.4 23:27:35 10° N 23:32:53 39° ENE 23:33:28 38° E
SeaSat 1 3.7 23:31:59 29° ENE 23:33:05 32° NE 23:37:26 10° NNW
Cosmos 1782 4.0 23:34:35 34° NE 23:34:35 34° NE 23:37:05 10° NNE
Cosmos 1943 Rocket 2.1 23:30:14 10° NNW 23:35:46 67° ENE 23:36:23 62° E
CZ-2C R/B 2.8 23:36:31 71° WSW 23:36:39 72° WSW 23:41:29 10° NNW
Lacrosse 5 1.7 23:35:09 10° NW 23:40:16 85° NE 23:40:20 85° ENE
Meteor 1-14 Rocket 4.4 23:36:52 10° NNW 23:42:20 60° W 23:43:11 53° SW
Sich 1 Rocket 3.9 23:38:28 10° N 23:42:35 62° NE 23:42:35 62° NE
CZ-4C R/B 2.1 23:43:31 66° ESE 23:43:31 66° ESE 23:49:15 10° NE
Cosmos 1606 3.8 23:46:44 43° N 23:46:44 43° N 23:49:27 10° N
Cosmos 1733 Rocket 4.1 23:41:30 10° NNW 23:45:35 38° W 23:45:38 38° W
Cosmos 389 Rocket 4.3 23:45:55 10° N 23:47:48 30° N 23:47:48 30° N
